Preview of NWS' New Version of Forecast
This preview is not operational and should not be used for support decisions.

Regional Weather Roundup (RWR)

Issued by National Weather Service (NWS)

                            
000
ASUS46 KPQR 251210
RWROR 

OREGON REGIONAL WEATHER ROUNDUP
NATIONAL WEATHER SERVICE PORTLAND OR
500 AM PDT SUN AUG 25 2019

NOTE: "FAIR" INDICATES FEW OR NO CLOUDS BELOW 12,000 FEET WITH
NO SIGNIFICANT WEATHER AND/OR OBSTRUCTIONS TO VISIBILITY.

ORZ001>013-251300-
NORTHWEST OREGON

  
CITY           SKY/WX    TMP DP  RH WIND       PRES   REMARKS
ASTORIA        MOCLDY    54  52  93 CALM      30.12R                  
6HR MIN TEMP:  54; 6HR MAX TEMP:  61;                                

TILLAMOOK      FOG       48  48 100 CALM      30.15R VSB 1/4          
NEWPORT        CLEAR     50  50 100 CALM      30.14R                  
FLORENCE       FAIR      52  50  93 CALM      30.10S                  
PORTLAND       PTCLDY    60  53  77 NW6       30.10R                  
6HR MIN TEMP:  60; 6HR MAX TEMP:  66;                                

VANCOUVER WA   CLEAR     60  52  74 CALM      30.10R                  
6HR MIN TEMP:  59; 6HR MAX TEMP:  65;                                

SCAPPOOSE      CLEAR     56  51  84 NW3       30.10R                  
6HR MIN TEMP:  55; 6HR MAX TEMP:  64;                                

HILLSBORO      CLEAR     53  50  89 NW8       30.10R                  
6HR MIN TEMP:  53; 6HR MAX TEMP:  64;                                

AURORA         CLEAR     60  52  74 N6        30.11R                  
6HR MIN TEMP:  60; 6HR MAX TEMP:  66;                                

MCMINNVILLE    CLEAR     54  52  93 CALM      30.10R                  
6HR MIN TEMP:  54; 6HR MAX TEMP:  64;                                

SALEM          CLEAR     57  51  80 NW6       30.09R                  
6HR MIN TEMP:  57; 6HR MAX TEMP:  64;                                

CORVALLIS      CLEAR     57  53  86 NW3       30.10R                  
EUGENE         CLEAR     58  52  80 NE5       30.10R                  
6HR MIN TEMP:  58; 6HR MAX TEMP:  65;                                

CRESWELL       CLOUDY    63  55  77 CALM      30.08S                  
$$

ORZ021-028-251300-
SOUTHWEST OREGON

  
CITY           SKY/WX    TMP DP  RH WIND       PRES   REMARKS
NORTH BEND     MOCLDY    54  54 100 S3        30.11S                  
6HR MIN TEMP:  54; 6HR MAX TEMP:  59;                                

BROOKINGS      FOG       53  53 100 CALM      30.03F VSB 1/4          
ROSEBURG       MOCLDY    64  56  75 N5        30.09R                  
6HR MIN TEMP:  62; 6HR MAX TEMP:  69;                                

SEXTON SUMMIT  CLEAR     54  53  97 N9        30.12S                  
6HR MIN TEMP:  54; 6HR MAX TEMP:  64;                                

GRANTS PASS    FAIR      59  52  77 CALM      30.08R                  
MEDFORD        CLEAR     60  49  66 CALM      30.04R                  
6HR MIN TEMP:  60; 6HR MAX TEMP:  76;                                

$$

ORZ014>016-041-251300-
COLUMBIA GORGE

  
CITY           SKY/WX    TMP DP  RH WIND       PRES   REMARKS
TROUTDALE      CLEAR     61  53  75 CALM      30.09S                  
6HR MIN TEMP:  61; 6HR MAX TEMP:  66;                                

HOOD RIVER     PTCLDY    61  54  77 NW16      30.03R                  
THE DALLES     CLEAR     65  53  65 NW14      29.99S                  
6HR MIN TEMP:  65; 6HR MAX TEMP:  72;                                

$$

ORZ029>031-041-044-049-050-061>064-502-503-505>511-251300-
EASTERN OREGON

  
CITY           SKY/WX    TMP DP  RH WIND       PRES   REMARKS
MADRAS         CLEAR     48  45  87 CALM      30.09R                  
REDMOND        CLEAR     48  41  76 CALM      30.08R                  
6HR MIN TEMP:  47; 6HR MAX TEMP:  62;                                

BEND           CLEAR     52  45  76 CALM      30.08R                  
PRINEVILLE     CLEAR     46  43  87 VRB3      30.07S                  
KLAMATH FALLS  CLEAR     49  43  80 CALM      30.12R                  
6HR MIN TEMP:  48; 6HR MAX TEMP:  62;                                

LAKEVIEW       CLEAR     55  45  68 S6        30.15R                  
HERMISTON      CLEAR     65  53  65 SW10      29.96R                  
6HR MIN TEMP:  62; 6HR MAX TEMP:  70;                                

PENDLETON      CLEAR     61  50  67 SW6       29.99R                  
6HR MIN TEMP:  61; 6HR MAX TEMP:  69;                                

JOHN DAY       CLEAR     55  45  69 W3        30.08R                  
MEACHAM        CLOUDY    55  48  77 W6        30.06S                  
6HR MIN TEMP:  45; 6HR MAX TEMP:  55;                                

LA GRANDE      CLEAR     54  44  69 CALM      30.05S                  
6HR MIN TEMP:  54; 6HR MAX TEMP:  64;                                

BAKER CITY     CLEAR     60  44  55 VRB7      30.05R                  
6HR MIN TEMP:  52; 6HR MAX TEMP:  64;                                

BURNS          CLEAR     46  34  62 CALM      30.08R                  
6HR MIN TEMP:  43; 6HR MAX TEMP:  60;                                

ROME             N/A     56  28  34 S9        30.05S                  
6HR MIN TEMP:  55; 6HR MAX TEMP:  77;                                

ONTARIO        CLEAR     65  43  44 SW3       29.98R                  
6HR MIN TEMP:  65; 6HR MAX TEMP:  77;                                

$$